Find Starlink 32384

NORAD ID: 62146 Int'l Des: 2024-224 Owner: SPXS Country: US Constellation: starlink operational
LEOCIRCULAR

实时位置

正在加载3D地球...

关于 Starlink 32384

正在加载描述...

即将过境

Passes for default location (London). Set your location on the main map for personalized predictions.

高度历史

Loading altitude history...

两行轨道根数

1 62146U 24224H 26126.52361517 .00015307 00000-0 56499-3 0 9992
2 62146 42.9997 191.6039 0001465 262.5324 97.5361 15.27558304 81325
Epoch: May 6, 2026 • Age: 14 hours

当前状态

高度 482.9 km
速度 7.63 km/s
星下点 19.15°N, 57.2°W
发射日期 Nov 30, 2024
运行时间 1.4 years
类型 internet

技术详情

分类 Payload
质量 730.00 kg
干质量 700.00 kg
总质量 730.00 kg
长度 0.30 m
直径 4.10 m
跨度 29.00 m
形状 Box + pan
制造商 SPXS
平台类型 Starlink V2M
阶段状态 In Orbit
所有者/国家 SPXS/US

Most Searched